Zurück zum Katalog

STARLINK-36677

AktivKommunikationVLEO
NORAD 68178·PAYLOAD·🇺🇸 United States

Gestartet Mar 14, 2026 von Vandenberg Space Force Base

Loading…

Nächste Überflüge (nächste 24 Stunden)

TLE

AktuellSource: CelesTrak SupGP

Epoche: Sep 15, 2026, 03:23 UTC

1 68178C 26050M   26258.14145833 -.00023475  00000+0 -69373-3 0  2586
2 68178  53.1573 102.7629 0001085  84.5452 336.8286 15.34396015    19

Verfolge STARLINK-36677 in Echtzeit mit AllMySat

Download on the App Store